Location: Gadern
(49.5873°N, 8.8138°E)
Time: 06:34:19
(UTC+00:00)

Cosmos 1975 - Pass Details

Date: 19 May 2025
Orbit: 487 x 505 km, 82.5° (Epoch: 22 June)

Event Time Altitude Azimuth Distance (km) Brightness Sun altitude
Rises 22:45:23 0° 344° (NNW) 2,576 7.8 -20.0°
Reaches altitude 10° 22:47:34 10° 337° (NNW) 1,688 6.4 -20.0°
Maximum altitude 22:51:03 41° 266° (W) 723 3.4 -20.1°
Enters shadow 22:51:30 39° 246° (WSW) 749 3.3 -20.1°
